Regional Weather Roundup
Issued by NWS

Home | Current Version | Previous Version | Graphics & Text | Print | Product List | Glossary On
Versions: 1 2 3 4 5 6 7 8 9 10 11 12 13 14 15 16 17 18 19 20 21 22 23 24 25 26 27 28 29 30 31 32 33 34 35 36 37 38 39 40 41 42 43 44 45 46 47 48 49 50
000
ASUS43 KLOT 240304
RWRIL

ILLINOIS REGIONAL WEATHER ROUNDUP
NATIONAL WEATHER SERVICE CHICAGO/ROMEOVILLE IL
1000 PM CDT FRI JUN 23 2017

NOTE: "FAIR" INDICATES FEW OR NO CLOUDS BELOW 12,000 FEET WITH NO
SIGNIFICANT WEATHER AND/OR OBSTRUCTIONS TO VISIBILITY.

* THESE STATIONS ARE NOT UNDER NWS QUALITY CONTROL. THEY ALSO MAY NOT
  REPORT WEATHER SUCH AS PRECIPITATION OR FOG.

ILZ001-002-007-009-015-016-024-240400-
NORTHWEST ILLINOIS

CITY           SKY/WX    TMP DP  RH WIND       PRES   REMARKS
MOLINE         CLEAR     69  54  58 NW12      29.90R
STERLING*      CLEAR     65  57  75 W8        29.88R
SAVANNA*       CLEAR     67  56  67 W9        29.88R
$$

ILZ003-004-008-010-011-017-018-240400-
NORTH CENTRAL ILLINOIS

CITY           SKY/WX    TMP DP  RH WIND       PRES   REMARKS
ROCKFORD       CLEAR     67  53  61 NW9       29.86R
FREEPORT*      CLEAR     63  55  75 W6        29.89R
ROCHELLE*      CLEAR     66  56  70 NW10      29.86R
DE KALB*       CLEAR     65  55  70 W13       29.85R
PERU*          CLEAR     66  55  66 NW12      29.87R
$$

ILZ005-006-012>014-019>023-240400-
NORTHEAST ILLINOIS

CITY           SKY/WX    TMP DP  RH WIND       PRES   REMARKS
CHICAGO-OHARE  PTCLDY    71  55  56 NW14      29.81R
CHICAGO-MIDWAY PTCLDY    73  56  54 NW14      29.80R
AURORA         CLEAR     66  56  70 W10       29.84R
LANSING*       CLOUDY    73  53  49 W9G16     29.81R
JOLIET*        CLEAR     71  56  60 W5        29.84R
WAUKEGAN       CLEAR     68  55  63 W5        29.80R
DUPAGE AIRPORT CLEAR     68  56  65 NW7       29.82R
WHEELING       CLEAR     70  57  63 NW13      29.82R
MORRIS*        CLEAR     67  56  67 NW13      29.83R
ROMEOVILLE*    CLEAR     69  53  56 NW16      29.83R
NORTHERLY ISL    N/A     73  53  49 NW10        N/A
$$

LMZ740>746-240400-
SOUTHERN LAKE MICHIGAN

STATION/POSITION SKY/WX   TEMP    WIND        PRES    VSBY  WAVE
                          AIR SEA DIR/SP/G                  HT/PER
                          (F)     (DEG/KT/KT) (MB)    (MI)  (FT/S)
SOUTHERN BUOY              67 63  350/  8/ 10 1006.8          0
WILMETTE HARBOR            69 65  300/ 12/ 16   N/A           1/ 3
HARRISON CRIB              74     300/ 18/ 21   N/A
BURNHAM HARBOR             72                   N/A
CALUMET HARBOR             74     290/  4/ 10 1008.2R
BURNS HARBOR               70     300/ 10/ 12 1009.1R
MICHIGAN CITY              73     290/ 10/ 11   N/A
MICHIGAN CITY 6N           71 69  310/ 12/ 14   N/A           1
ST. JOSEPH                 71 69  310/ 12/ 16 1007.8R         1/ 2
$$

ILZ025>027-034>036-040-047-049-050-058-095>099-240400-
WEST-CENTRAL ILLINOIS

CITY           SKY/WX    TMP DP  RH WIND       PRES   REMARKS
QUINCY         CLEAR     67  56  67 NW7       29.95R
GALESBURG*     CLEAR     64  56  76 W8        29.93R
MACOMB*        CLEAR     64  56  77 NW8       29.95R
JACKSONVILLE*  CLEAR     69  55  61 NW8       29.93R
PITTSFIELD*    CLEAR     70  56  62 NW3       29.96R
$$

ILZ028>032-037-038-041>044-048-051>054-059>061-240400-
CENTRAL ILLINOIS

CITY           SKY/WX    TMP DP  RH WIND       PRES   REMARKS
PONTIAC        CLOUDY    67  60  77 W10       29.88R
BLOOMINGTON    CLOUDY    69  55  60 NW14      29.90R
DECATUR        CLOUDY    71  57  61 NW13G21   29.90R
PEORIA         CLEAR     68  55  63 VRB3      29.91R
LACON*         CLEAR     67  56  66 NW9       29.88R
LINCOLN*       CLOUDY    71  55  58 NW5       29.90R
SPRINGFIELD    CLOUDY    73  56  54 NW9       29.91R
TAYLORVILLE    PTCLDY    72  56  57 N13G18    29.92R
$$

ILZ033-039-045-046-055>057-062-063-240400-
EAST-CENTRAL ILLINOIS

CITY           SKY/WX    TMP DP  RH WIND       PRES   REMARKS
CHAMPAIGN      MOCLDY    71  56  58 NW15G23   29.88R
RANTOUL*       CLOUDY    71  60  69 NW9       29.87R
MATTOON        PTCLDY    70  60  70 SW6       29.86R
PARIS*         PTCLDY    64  62  93 CALM      29.86R
$$

ILZ079-100>102-240400-
SOUTHWEST ILLINOIS

CITY           SKY/WX    TMP DP  RH WIND       PRES   REMARKS
ALTON          MOCLDY    68  59  73 W5        29.92R
BELLEVILLE     CLOUDY    71  59  66 NW6       29.92R
CAHOKIA*       CLOUDY    77  54  44 NW12      29.91R
SPARTA*        CLOUDY    72  57  60 CALM      29.93R
$$

ILZ064>066-069>071-074>076-080>082-084>086-088>090-092>094-240400-
SOUTH-CENTRAL ILLINOIS

CITY           SKY/WX    TMP DP  RH WIND       PRES   REMARKS
CARBONDALE     CLOUDY    70  64  81 W5        29.91R
CAIRO*         CLOUDY    74  63  69 NW3       29.91R
EFFINGHAM*     PTCLDY    68  66  96 CALM      29.90R
MARION         MOCLDY    72  70  94 CALM      29.92R
MT. VERNON     PTCLDY    65  64  97 CALM      29.90R
CENTRALIA*     CLOUDY    69  65  87 W5        29.90R
SALEM*         PTCLDY    70  62  76 CALM      29.90R
METROPOLIS*    CLOUDY    71  69  93 W3        29.91R
$$

ILZ067-068-072-073-078-083-087-091-240400-
SOUTHEAST ILLINOIS

CITY           SKY/WX    TMP DP  RH WIND       PRES   REMARKS
LAWRENCEVILLE  CLOUDY    70  68  93 W5        29.88R
FLORA*         MOCLDY    72  62  71 W6        29.89R
FAIRFIELD*     MOCLDY    67  66  96 CALM      29.88R
HARRISBURG*    CLOUDY    71  66  83 NW3       29.91R
ROBINSON*      CLOUDY    66  64  90 W5        29.87R
CARMI*         CLOUDY    70  67  91 W5        29.89R
$$

ABBREVIATIONS USED IN REMARKS
   TC - TEMPERATURE IN CELSIUS
  WCI - WIND CHILL INDEX
   HX - HEAT INDEX
  VSB - VISIBILITY
$$




USA.gov is the U.S. government's official web portal to all federal, state and local government web resources and services.